Regional Weather Roundup
Issued by NWS

Home | Current Version | Previous Version | Text Only | Print | Product List | Glossary On
Versions: 1 2 3 4 5 6 7 8 9 10 11 12 13 14 15 16 17 18 19 20 21 22 23 24 25 26 27
000
ASUS44 KBMX 281910
RWRAL

ALABAMA REGIONAL WEATHER ROUNDUP
NATIONAL WEATHER SERVICE BIRMINGHAM AL
200 PM CDT FRI APR 28 2017

NOTE: "FAIR" INDICATES FEW OR NO CLOUDS BELOW 12,000 FEET
WITH NO SIGNIFICANT WEATHER AND/OR OBSTRUCTIONS TO VISIBILITY.

THE REMARK "TC" DENOTES TEMPERATURE IN DEGREES CELSIUS.

ALZ001>011-014-016>018-020-282000-
NORTH ALABAMA

CITY           SKY/WX    TMP DP  RH WIND       PRES   REMARKS
MUSCLE SHOALS  PTSUNNY   83  68  60 S12G21    29.90F
HUNTSVILLE     PTSUNNY   84  69  60 S16       29.93S
DECATUR        PTSUNNY   80  69  69 S20G29    29.92F
HALEYVILLE     CLOUDY    79  69  71 S14G24    29.93F
GADSDEN        PTSUNNY  N/A N/A N/A S13G20    29.97F
$$

ALZ012-013-022-023-030>036-040>044-282000-
WEST CENTRAL ALABAMA

CITY           SKY/WX    TMP DP  RH WIND       PRES   REMARKS
TUSCALOOSA     PTSUNNY   87  69  54 S18G24    29.91F HX  91
$$

ALZ015-024>027-033>036-040>044-282000-
CENTRAL ALABAMA

CITY           SKY/WX    TMP DP  RH WIND       PRES   REMARKS
BIRMINGHAM     PTSUNNY   87  66  49 S18       29.98F
MONTGOMERY     PTSUNNY   88  67  49 S15       29.98S HX  91
SHELBY CO ARPT MOSUNNY   87  70  56 S14G24    29.97S HX  92
MAXWELL AFB    PTSUNNY   87  69  54 S15G21    29.97F HX  91
GREENVILLE     FAIR      87  67  51 SW12G21   29.98S HX  90
$$

ALZ019-021-028-029-037-038-045>048-282000-
EAST CENTRAL ALABAMA

CITY           SKY/WX    TMP DP  RH WIND       PRES   REMARKS
ANNISTON       PTSUNNY   83  68  60 S13       29.99F
ALEXANDER CITY MOSUNNY   84  67  57 S8        30.01S
AUBURN         PTSUNNY   85  69  58 S14G22    30.04S
$$

ALZ051>064-282000-
SOUTHWEST ALABAMA

CITY           SKY/WX    TMP DP  RH WIND       PRES   REMARKS
MOBILE         PTSUNNY   84  72  67 S18G25    29.97F
BROOKLEY FIELD CLOUDY    82  77  84 SE15      29.99S HX  90
EVERGREEN      CLOUDY    87  70  56 S17G25    29.98S HX  92
$$

ALZ049-050-065>069-282000-
SOUTHEAST ALABAMA

CITY           SKY/WX    TMP DP  RH WIND       PRES   REMARKS
DOTHAN         PTSUNNY   88  69  53 S16       30.05S HX  92
OZARK          MOSUNNY   89  69  51 S15G21    30.01S HX  92
TROY           PTSUNNY   86  68  54 S16G25    30.01S
EUFAULA        FAIR      89  69  51 S12       30.01S HX  93
$$




USA.gov is the U.S. government's official web portal to all federal, state and local government web resources and services.